sat.trackr.live / text

‹ back to catalog

STARLINK-38089

NORAD 69985 · 2026-159L

PAYLOAD ACTIVE UNKNOWN

§ Identity

Operator
Country
US
Launch date
2026-07-11
Launch site
AFWTR
Launch vehicle
Mass (kg)
RCS (m²)

Purposes: comms

External: N2YO · Heavens-Above · Gunter

§ Orbital elements

Epoch: 2026-09-19T23:55:02.427168Z

Period
92.95 min
Inclination
97.2843°
Eccentricity
0.0001217
Mean motion
15.49234378 rev/d
Perigee alt
418.1 km
Apogee alt
419.8 km
Semi-major
6,797.1 km
B*
7.9367e-4
RAAN
104.7231°
Arg perigee
104.3310°
Mean anomaly
255.8076°
Rev number
1,236

§ Raw data

STARLINK-380891 69985U 26159L   26262.99655587  .00043382  00000+0  79367-3 0  99962 69985  97.2843 104.7231 0001217 104.3310 255.8076 15.49234378 12364

JSON: /api/v1/satellites/69985 · /tle

For live sub-satellite position, see the globe view (requires WebGL).

§ Visibility from observer

Set your observer location to see the next 7 days of passes ≥ 10°. The values pass through the URL so the page stays shareable.

No JS? Fill the form by hand. The geolocation button needs JavaScript.